[[{"header":{"parameterUnit":"m.s-1","parameterCategory":1,"la1":30.2991,"la2":30.254,"lo1":-89.0895,"lo2":-89.0444,"dy":0.0017,"dx":0.0017,"nx":28,"ny":28,"refTime":"2025-11-21T03:00:00:Z","depth":0,"parameterNumber":2,"parameterNumberName":"U-component_of_WINDS"},"data":[0,0,0,0,0,0,0,0,0,0,0,0,0,0,0,0,0,0,0,0,0,0,0,0,0,0,0,0,0,0,0,0,0,0,0,0,0,0,0,0,0,0,0,0,0,0,0,0,0,0,0,0,0,0,0,0,0,0,1.2519,1.2519,0,1.2575,1.2575,1.2576,1.2599,1.2599,1.2599,1.2599,1.2661,1.2662,1.2664,0,0,0,0,0,0,0,0,0,0,0,0,0,1.2437,1.2439,1.2519,1.2519,1.252,1.2575,1.2575,1.2576,1.2599,1.2599,1.2599,1.2599,1.266,1.2662,1.2664,0,0,0,0,0,0,0,0,0,0,0,0,0,1.2481,1.2439,1.2519,1.2538,1.254,1.2575,1.2576,1.2576,1.2599,1.2599,1.2599,1.2599,1.2659,1.2662,1.2665,1.2685,0,0,1.2673,1.2674,0,0,0,0,0,0,0,0,1.2479,1.2484,1.2535,1.2537,1.2539,1.258,1.2569,1.2613,1.26,1.2577,1.2599,1.2599,1.2634,1.2639,1.265,1.2688,1.269,1.2673,1.2674,1.2676,1.2676,0,0,0,0,0,0,0,1.2476,1.2482,1.2541,1.2535,1.2538,1.2546,1.2552,1.2578,1.2606,1.2579,1.2581,1.2587,1.2636,1.2647,1.2652,1.2691,1.2673,1.2675,1.2677,1.2678,1.2752,1.2752,0,0,0,0,0,0,1.2469,1.2479,1.2539,1.2543,1.2508,1.2548,1.2554,1.2567,1.2606,1.2612,1.2587,1.2588,1.2643,1.2649,1.2654,1.2682,1.2676,1.2678,1.268,1.2751,1.2752,1.2752,0,0,0,0,0,0,1.2467,1.2474,1.2537,1.2511,1.252,1.2549,1.2563,1.2568,1.258,1.2612,1.2618,1.2594,1.2643,1.265,1.2677,1.2684,1.2679,1.2682,1.2751,1.2751,1.2752,1.2737,0,0,0,0,0,0,1.2464,1.2473,1.2479,1.2511,1.2521,1.2557,1.2564,1.257,1.2584,1.2586,1.262,1.2625,1.2643,1.2673,1.268,1.2688,1.2684,1.275,1.2751,1.2752,1.2737,1.2737,1.2737,0,0,0,0,0,1.2461,1.2473,1.2479,1.2486,1.253,1.2558,1.2564,1.2583,1.2584,1.2592,1.2613,1.2624,1.2682,1.2676,1.2684,1.2692,1.275,1.2751,1.2752,1.2737,1.2737,1.2737,0,0,0,0,0,0,1.2441,1.2477,1.2485,1.2507,1.2529,1.2561,1.2572,1.2582,1.2605,1.2606,1.2631,1.2639,1.2664,1.2681,1.2673,1.2716,1.2717,1.272,1.2703,1.2703,1.2703,1.2699,1.2686,0,0,0,0,0,1.2439,1.2458,1.2489,1.2505,1.2516,1.2542,1.2555,1.2568,1.2593,1.2603,1.2626,1.265,1.2675,1.269,1.2714,1.274,1.2749,1.275,1.275,1.2749,1.2751,1.2769,1.2771,1.2755,1.2755,1.2755,0,0,1.2436,1.2458,1.2468,1.2502,1.2521,1.2541,1.255,1.257,1.2586,1.2606,1.2633,1.2651,1.2681,1.2708,1.2721,1.2723,1.2758,1.2751,1.275,1.2752,1.277,1.2772,1.2773,1.2756,1.2755,1.2755,0,0,1.244,1.2457,1.2474,1.2493,1.2521,1.2539,1.2543,1.2574,1.2587,1.2614,1.263,1.2651,1.2691,1.2713,1.2729,1.2744,1.2755,1.2751,1.2751,1.2768,1.2769,1.277,1.2777,1.278,1.2753,1.2753,1.2753,0,1.2432,1.2461,1.2482,1.2502,1.2518,1.2536,1.2555,1.2573,1.2608,1.2619,1.262,1.2673,1.2694,1.2728,1.2732,1.2744,1.2751,1.2747,1.2767,1.2768,1.277,1.2777,1.278,1.2752,1.2752,1.2752,1.2752,0,1.2452,1.2472,1.2483,1.2515,1.2532,1.2552,1.2577,1.2592,1.2605,1.2623,1.2653,1.2679,1.271,1.2719,1.2731,1.2755,1.2756,1.2762,1.2764,1.277,1.2778,1.2781,1.2751,1.2752,1.2752,1.2752,0,0,1.2443,1.2488,1.2492,1.2508,1.2541,1.2559,1.2581,1.261,1.2623,1.2648,1.2668,1.2703,1.271,1.2728,1.2744,1.2758,1.2772,1.2763,1.2764,1.2765,1.2802,1.2798,1.28,1.278,1.278,1.2781,1.28,0,1.2452,1.249,1.251,1.254,1.256,1.258,1.2599,1.2623,1.2642,1.2664,1.2685,1.271,1.2716,1.2728,1.2743,1.2766,1.2779,1.2765,1.2801,1.2802,1.2793,1.2804,1.2799,1.2816,1.2803,1.2803,1.2804,0,1.2467,1.2491,1.2523,1.2556,1.2566,1.2582,1.2612,1.2632,1.2662,1.2674,1.2696,1.2712,1.2738,1.2739,1.2777,1.2767,1.2784,1.2798,1.2799,1.2803,1.2803,1.281,1.2821,1.2824,1.2808,1.2808,1.2807,0,1.246,1.25,1.2524,1.2538,1.2577,1.2589,1.2606,1.2635,1.2652,1.2679,1.2691,1.2721,1.2737,1.2762,1.2787,1.2784,1.2823,1.2826,1.2837,1.2836,1.2844,1.2843,1.2859,1.2853,1.2853,1.2853,1.2853,0,1.2468,1.2487,1.2522,1.2537,1.256,1.2584,1.2607,1.2626,1.2652,1.2674,1.2693,1.2713,1.2744,1.2769,1.2789,1.2819,1.2826,1.2839,1.2844,1.2838,1.2836,1.2849,1.2849,1.2854,1.2854,1.2853,1.2853,0,1.2463,1.2486,1.2515,1.255,1.256,1.2575,1.2607,1.2624,1.2644,1.2671,1.2679,1.2711,1.2742,1.2769,1.281,1.2824,1.2855,1.2861,1.2845,1.2847,1.2858,1.2857,1.2883,1.2888,1.2877,1.2878,1.2878,0,1.2467,1.2482,1.2519,1.2534,1.2551,1.2575,1.2593,1.2618,1.2636,1.2672,1.2686,1.2718,1.2744,1.2793,1.2821,1.2854,1.2861,1.2868,1.2866,1.286,1.2863,1.2862,1.2865,1.2868,1.2868,1.2868,1.2868,0,1.2472,1.2483,1.2507,1.2536,1.2556,1.2581,1.2606,1.2617,1.2648,1.2668,1.2699,1.272,1.2762,1.2794,1.283,1.2851,1.2866,1.2869,1.2873,1.2867,1.2857,1.2864,1.2845,1.2868,1.2868,1.2868,1.2868,1.2868,1.2472,1.2487,1.2516,1.2543,1.2565,1.2588,1.2607,1.2629,1.2655,1.269,1.2705,1.2737,1.2769,1.2818,1.2839,1.2867,1.287,1.2876,1.2877,1.2879,1.2878,1.2852,1.2874,1.2874,1.2874,1.2874,1.2874,0,1.2479,1.2499,1.2524,1.2558,1.258,1.2591,1.262,1.2638,1.2666,1.2694,1.272,1.2757,1.2789,1.2821,1.2856,1.2872,1.288,1.288,1.288,1.2885,1.2873,1.2866,1.2873,1.2873,1.2873,1.2873,1.2873,1.2873,1.2485,1.2512,1.2528,1.2567,1.2588,1.2618,1.2634,1.2657,1.268,1.272,1.2746,1.2766,1.2797,1.2835,1.2866,1.2875,1.2887,1.2886,1.2897,1.2886,1.2885,1.2885,1.2879,1.2888,1.2888,1.2907,1.2907,1.2907]},{"header":{"parameterUnit":"m.s-1","parameterCategory":1,"la1":30.2991,"la2":30.254,"lo1":-89.0895,"lo2":-89.0444,"dy":0.0017,"dx":0.0017,"nx":28,"ny":28,"refTime":"2025-11-21T03:00:00:Z","depth":0,"parameterNumber":3,"parameterNumberName":"V-component_of_WINDS"},"data":[0,0,0,0,0,0,0,0,0,0,0,0,0,0,0,0,0,0,0,0,0,0,0,0,0,0,0,0,0,0,0,0,0,0,0,0,0,0,0,0,0,0,0,0,0,0,0,0,0,0,0,0,0,0,0,0,0,0,1.0653,1.0653,0,1.0686,1.0686,1.0687,1.0644,1.0643,1.0641,1.064,1.0671,1.0674,1.0676,0,0,0,0,0,0,0,0,0,0,0,0,0,1.055,1.0552,1.0653,1.0653,1.0654,1.0686,1.0686,1.0687,1.0644,1.0643,1.0641,1.0639,1.0671,1.0673,1.0676,0,0,0,0,0,0,0,0,0,0,0,0,0,1.059,1.0553,1.0653,1.0637,1.0635,1.0686,1.0686,1.0687,1.0645,1.0642,1.064,1.0638,1.067,1.0673,1.0676,1.0744,0,0,1.0687,1.0688,0,0,0,0,0,0,0,0,1.0588,1.0594,1.0639,1.0638,1.0637,1.0659,1.0661,1.0706,1.0645,1.0641,1.064,1.0637,1.0669,1.0672,1.0683,1.0745,1.0746,1.0687,1.0689,1.0691,1.0692,0,0,0,0,0,0,0,1.0585,1.0592,1.0666,1.0639,1.0638,1.0626,1.063,1.067,1.0667,1.0641,1.0638,1.0643,1.0668,1.068,1.0684,1.0747,1.0687,1.069,1.0692,1.0693,1.0863,1.0865,0,0,0,0,0,0,1.0584,1.059,1.0665,1.0667,1.0606,1.063,1.0634,1.0654,1.0667,1.0667,1.0645,1.0641,1.0675,1.068,1.0685,1.0762,1.0691,1.0694,1.0696,1.086,1.0863,1.0866,0,0,0,0,0,0,1.0582,1.0592,1.0663,1.0628,1.0636,1.0634,1.0657,1.0656,1.0668,1.067,1.0669,1.0658,1.0674,1.068,1.0729,1.0763,1.0695,1.0698,1.0857,1.0861,1.0864,1.092,0,0,0,0,0,0,1.058,1.0591,1.0618,1.0629,1.0638,1.0708,1.0659,1.0658,1.0674,1.0669,1.0682,1.0682,1.0672,1.0724,1.0732,1.0767,1.0701,1.0854,1.0859,1.0863,1.0915,1.0925,1.0933,0,0,0,0,0,1.0576,1.0632,1.0619,1.0629,1.0671,1.071,1.0716,1.0705,1.0677,1.0703,1.0704,1.0681,1.0758,1.0729,1.0738,1.0774,1.0852,1.0858,1.0863,1.0911,1.0923,1.0933,0,0,0,0,0,0,1.0625,1.0633,1.0619,1.0681,1.0695,1.0703,1.0736,1.0718,1.074,1.0735,1.0719,1.0722,1.0774,1.0779,1.0747,1.0838,1.08,1.0808,1.0834,1.0845,1.0854,1.0852,1.0704,0,0,0,0,0,1.0643,1.0675,1.068,1.0734,1.0742,1.0738,1.0754,1.0744,1.0758,1.0764,1.0769,1.0782,1.0809,1.0828,1.0853,1.0915,1.0916,1.0944,1.0953,1.0961,1.0968,1.0999,1.1011,1.0884,1.0884,1.0884,0,0,1.0681,1.0689,1.071,1.0744,1.0754,1.0786,1.0743,1.0779,1.0802,1.0769,1.0816,1.0819,1.0833,1.0889,1.0914,1.0895,1.1003,1.0968,1.0974,1.0977,1.1006,1.1018,1.1028,1.0887,1.0887,1.0886,0,0,1.0765,1.0775,1.082,1.0831,1.0846,1.0843,1.0854,1.0864,1.0865,1.0911,1.0886,1.0913,1.0961,1.0971,1.0983,1.1069,1.1049,1.1078,1.1126,1.1157,1.1167,1.1175,1.1205,1.1215,1.1084,1.1084,1.1084,0,1.0809,1.0858,1.0845,1.0883,1.0897,1.0869,1.0913,1.0924,1.0947,1.0957,1.0935,1.0993,1.1001,1.1057,1.1078,1.1089,1.1099,1.1076,1.1166,1.1175,1.1183,1.1211,1.1222,1.1088,1.1087,1.1087,1.1087,0,1.091,1.0944,1.0978,1.1001,1.1019,1.106,1.1052,1.1072,1.106,1.1058,1.1104,1.1112,1.1138,1.115,1.1139,1.1205,1.1192,1.1169,1.113,1.1199,1.1224,1.1235,1.1092,1.1091,1.109,1.1089,0,0,1.1027,1.1041,1.1054,1.1063,1.1077,1.1103,1.1141,1.1166,1.1182,1.1199,1.123,1.1269,1.1247,1.126,1.125,1.1277,1.1342,1.125,1.125,1.1266,1.1413,1.143,1.1443,1.1329,1.1331,1.1333,1.1411,0,1.111,1.1178,1.1166,1.1231,1.1261,1.1233,1.1266,1.1278,1.1277,1.1301,1.1299,1.1327,1.1297,1.1304,1.133,1.1329,1.1372,1.1323,1.1356,1.1358,1.1353,1.1456,1.1475,1.1549,1.1422,1.1423,1.1425,0,1.1217,1.1236,1.1304,1.1312,1.1324,1.1354,1.1375,1.1399,1.141,1.1408,1.1422,1.1406,1.1442,1.1403,1.1452,1.142,1.1432,1.1434,1.1436,1.1438,1.1395,1.146,1.1572,1.1583,1.144,1.1439,1.1438,0,1.1293,1.1337,1.1382,1.1391,1.1402,1.1423,1.1428,1.1438,1.1453,1.1471,1.148,1.1502,1.1514,1.1531,1.152,1.1493,1.1571,1.1531,1.1568,1.1568,1.1585,1.1584,1.17,1.1595,1.1595,1.1595,1.1595,0,1.1386,1.1428,1.1416,1.1444,1.149,1.1476,1.1521,1.1523,1.1531,1.1558,1.1535,1.1561,1.1546,1.157,1.1562,1.1603,1.1609,1.1606,1.1604,1.1608,1.1608,1.1615,1.161,1.1598,1.1597,1.1597,1.1596,0,1.1479,1.1473,1.1521,1.1527,1.1529,1.1562,1.1566,1.1592,1.1588,1.1622,1.1629,1.1624,1.1651,1.1642,1.1671,1.1666,1.1717,1.1708,1.1713,1.1711,1.1748,1.1744,1.1872,1.1887,1.1773,1.1774,1.1775,0,1.1539,1.157,1.1579,1.1596,1.1603,1.1629,1.1644,1.1631,1.1647,1.1662,1.1685,1.171,1.1729,1.1773,1.1771,1.1792,1.1783,1.1826,1.1786,1.1789,1.1782,1.178,1.1782,1.1834,1.1835,1.1836,1.1837,0,1.1645,1.164,1.1662,1.1684,1.1702,1.1718,1.1732,1.1747,1.1734,1.1753,1.178,1.1795,1.1824,1.1848,1.1867,1.1871,1.1852,1.185,1.1859,1.1864,1.1865,1.1863,1.1734,1.1847,1.1846,1.1845,1.1845,1.1844,1.1722,1.1748,1.1757,1.1783,1.1792,1.1805,1.1828,1.1828,1.185,1.1873,1.1864,1.1894,1.1903,1.1927,1.1934,1.1956,1.194,1.1954,1.1957,1.1961,1.1965,1.1862,1.196,1.196,1.1959,1.1959,1.1959,0,1.1825,1.1829,1.1853,1.1873,1.1893,1.1873,1.1887,1.1904,1.1932,1.1942,1.1961,1.1991,1.2014,1.2014,1.2035,1.2053,1.2045,1.2059,1.2057,1.2058,1.1979,1.1968,1.2065,1.2065,1.2065,1.2065,1.2065,1.2065,1.1881,1.1923,1.1919,1.1965,1.1969,1.1999,1.2008,1.2019,1.2027,1.2062,1.2081,1.2081,1.2086,1.2107,1.2127,1.2126,1.2134,1.2152,1.2148,1.2074,1.2064,1.2053,1.2043,1.2154,1.2154,1.2224,1.2225,1.2225]}]]